Regional Weather Roundup
Issued by NWS Goodland, KS

Home | Current Version | Previous Version | Graphics & Text | Print | Product List | Glossary On
Versions: 1 2 3 4 5 6 7 8 9 10 11 12 13 14 15 16 17 18 19 20 21 22 23 24 25 26 27 28 29 30 31 32 33 34 35 36 37 38 39 40 41 42 43 44 45 46 47 48 49 50
000
ASUS43 KGLD 061459
RWRGLD

GOODLAND FORECAST AREA HOURLY WEATHER ROUNDUP
NATIONAL WEATHER SERVICE GOODLAND KS
800 AM MST SAT FEB 06 2016

...OFFICIAL OBSERVATIONS...

CITY           SKY/WX    TMP DP  RH WIND       PRES   REMARKS
GOODLAND KS    CLOUDY    22  10  60 SW13      30.22F WCI  10
HILL CITY KS   CLOUDY    19  10  68 W8        30.28F
IMPERIAL NEB     N/A     18   8  65 W13       30.20R WCI   5
MCCOOK NEB     CLOUDY    16   9  74 W10       30.23F WCI   4
AKRON CO       CLOUDY    19   6  57 W17       30.19S WCI   4
BURLINGTON CO  CLOUDY    19   6  57 SW14      30.23S WCI   6
LIMON CO       CLOUDY     2  -6  69 N6        30.23S
$$

...UNOFFICIAL OBSERVATIONS...

CITY           SKY/WX    TMP DP  RH WIND       PRES   REMARKS
COLBY KS       SUNNY     18  12  79 SW8       30.25S
GOVE KS          N/A     15  32 100 MISG        N/A
LENORA KS        N/A     21  32 100 MISG        N/A
NORTON KS      SUNNY     14   7  73 SW10      30.24S WCI   1
SHARON SPRINGS   N/A     20  14  77 SW8         N/A
TRENTON NEB      N/A     16  32 100 MISG        N/A
KIT CARSON CO    N/A     12   6  77 MISG        N/A
YUMA CO          N/A     15   6  68 W8          N/A
$$



USA.gov is the U.S. government's official web portal to all federal, state and local government web resources and services.